Wetterdaten: aktuell Montag, 16.12.2019 07:15
Datum Zeit Temp. A. Temp. A. min Feuchte A. Luftdruck Regen Wind Richtung Richtung Sonnenschein Solar Taupunkt Windchill Windben
16.12.2019 07:15 7,9 C 7,9 C 91 % 1017,4 hPa 0,0 l/m 2,1 km/h (1 Bft) W-SW 258 0 min 0 W/m 6,5 C 7,9 C 6,4 km/h (2 Bft)
16.12.2019 07:10 7,9 C 7,9 C 91 % 1017,4 hPa 0,0 l/m 0,0 km/h (0 Bft) SO 134 0 min 0 W/m 6,5 C 7,9 C 1,6 km/h (1 Bft)
16.12.2019 07:05 8,0 C 7,9 C 91 % 1017,3 hPa 0,0 l/m 0,7 km/h (0 Bft) S-SW 211 0 min 0 W/m 6,6 C 8,0 C 3,2 km/h (1 Bft)
16.12.2019 07:00 8,1 C 8,1 C 91 % 1017,4 hPa 0,0 l/m 0,2 km/h (0 Bft) W-SW 243 0 min 0 W/m 6,7 C 8,1 C 3,2 km/h (1 Bft)
16.12.2019 06:55 8,1 C 8,1 C 91 % 1017,4 hPa 0,0 l/m 0,7 km/h (0 Bft) W 261 0 min 0 W/m 6,7 C 8,1 C 6,4 km/h (2 Bft)
16.12.2019 06:50 8,1 C 8,1 C 91 % 1017,4 hPa 0,0 l/m 0,3 km/h (0 Bft) SW 226 0 min 0 W/m 6,7 C 8,1 C 3,2 km/h (1 Bft)
16.12.2019 06:45 8,2 C 8,2 C 91 % 1017,4 hPa 0,0 l/m 0,7 km/h (0 Bft) SW 223 0 min 0 W/m 6,8 C 8,2 C 4,8 km/h (1 Bft)
16.12.2019 06:40 8,2 C 8,2 C 91 % 1017,4 hPa 0,0 l/m 0,0 km/h (0 Bft) S 176 0 min 0 W/m 6,8 C 8,2 C 0,0 km/h (0 Bft)
16.12.2019 06:35 8,3 C 8,3 C 91 % 1017,5 hPa 0,0 l/m 1,6 km/h (1 Bft) S 176 0 min 0 W/m 6,9 C 8,3 C 9,7 km/h (2 Bft)
16.12.2019 06:30 8,4 C 8,4 C 91 % 1017,5 hPa 0,0 l/m 2,6 km/h (1 Bft) S-SO 161 0 min 0 W/m 7,0 C 8,4 C 12,9 km/h (3 Bft)
16.12.2019 06:25 8,6 C 8,6 C 90 % 1017,5 hPa 0,0 l/m 2,3 km/h (1 Bft) S-SO 167 0 min 0 W/m 7,1 C 8,6 C 6,4 km/h (2 Bft)
16.12.2019 06:20 8,7 C 8,7 C 91 % 1017,5 hPa 0,0 l/m 0,5 km/h (0 Bft) S 184 0 min 0 W/m 7,3 C 8,7 C 4,8 km/h (1 Bft)
16.12.2019 06:15 8,8 C 8,8 C 91 % 1017,5 hPa 0,0 l/m 0,0 km/h (0 Bft) S-SW 208 0 min 0 W/m 7,4 C 8,8 C 0,0 km/h (0 Bft)
16.12.2019 06:10 8,9 C 8,9 C 91 % 1017,5 hPa 0,0 l/m 0,2 km/h (0 Bft) S-SW 208 0 min 0 W/m 7,5 C 8,9 C 3,2 km/h (1 Bft)
16.12.2019 06:05 8,9 C 8,9 C 91 % 1017,5 hPa 0,0 l/m 0,8 km/h (0 Bft) S-SW 207 0 min 0 W/m 7,5 C 8,9 C 4,8 km/h (1 Bft)
16.12.2019 06:00 8,9 C 8,9 C 91 % 1017,6 hPa 0,0 l/m 1,3 km/h (1 Bft) S-SW 204 0 min 0 W/m 7,5 C 8,9 C 6,4 km/h (2 Bft)
16.12.2019 05:55 8,9 C 8,9 C 92 % 1017,6 hPa 0,0 l/m 2,6 km/h (1 Bft) S-SW 196 0 min 0 W/m 7,7 C 8,9 C 8,0 km/h (2 Bft)
16.12.2019 05:50 8,9 C 8,8 C 92 % 1017,5 hPa 0,0 l/m 2,6 km/h (1 Bft) S 177 0 min 0 W/m 7,7 C 8,9 C 8,0 km/h (2 Bft)
16.12.2019 05:45 8,8 C 8,7 C 92 % 1017,5 hPa 0,0 l/m 7,0 km/h (2 Bft) SO 145 0 min 0 W/m 7,6 C 7,8 C 14,5 km/h (3 Bft)
16.12.2019 05:40 8,8 C 8,7 C 92 % 1017,5 hPa 0,0 l/m 3,9 km/h (1 Bft) S-SO 158 0 min 0 W/m 7,6 C 8,8 C 9,7 km/h (2 Bft)
16.12.2019 05:35 8,8 C 8,8 C 92 % 1017,4 hPa 0,0 l/m 3,2 km/h (1 Bft) S-SW 198 0 min 0 W/m 7,6 C 8,8 C 6,4 km/h (2 Bft)
16.12.2019 05:30 8,8 C 8,8 C 92 % 1017,4 hPa 0,0 l/m 2,9 km/h (1 Bft) S-SO 153 0 min 0 W/m 7,6 C 8,8 C 8,0 km/h (2 Bft)
16.12.2019 05:25 8,8 C 8,8 C 93 % 1017,4 hPa 0,0 l/m 3,3 km/h (1 Bft) S 170 0 min 0 W/m 7,7 C 8,8 C 9,7 km/h (2 Bft)
16.12.2019 05:20 8,8 C 8,8 C 93 % 1017,5 hPa 0,0 l/m 3,1 km/h (1 Bft) S 177 0 min 0 W/m 7,7 C 8,8 C 8,0 km/h (2 Bft)
16.12.2019 05:15 8,8 C 8,8 C 93 % 1017,5 hPa 0,0 l/m 0,4 km/h (0 Bft) SW 228 0 min 0 W/m 7,7 C 8,8 C 3,2 km/h (1 Bft)
16.12.2019 05:10 8,8 C 8,8 C 93 % 1017,4 hPa 0,0 l/m 0,0 km/h (0 Bft) SW 228 0 min 0 W/m 7,7 C 8,8 C 1,6 km/h (1 Bft)
16.12.2019 05:05 8,8 C 8,8 C 93 % 1017,4 hPa 0,0 l/m 0,1 km/h (0 Bft) SW 228 0 min 0 W/m 7,7 C 8,8 C 3,2 km/h (1 Bft)
16.12.2019 05:00 8,8 C 8,8 C 93 % 1017,5 hPa 0,0 l/m 0,3 km/h (0 Bft) SW 228 0 min 0 W/m 7,7 C 8,8 C 3,2 km/h (1 Bft)
16.12.2019 04:55 8,8 C 8,8 C 93 % 1017,5 hPa 0,0 l/m 0,5 km/h (0 Bft) NW 309 0 min 0 W/m 7,7 C 8,8 C 3,2 km/h (1 Bft)
16.12.2019 04:50 8,8 C 8,8 C 93 % 1017,5 hPa 0,0 l/m 0,6 km/h (0 Bft) NW 317 0 min 0 W/m 7,7 C 8,8 C 4,8 km/h (1 Bft)
16.12.2019 04:45 8,8 C 8,8 C 93 % 1017,5 hPa 0,0 l/m 0,5 km/h (0 Bft) N-NW 341 0 min 0 W/m 7,7 C 8,8 C 1,6 km/h (1 Bft)
16.12.2019 04:40 8,8 C 8,8 C 93 % 1017,6 hPa 0,0 l/m 0,6 km/h (0 Bft) N 9 0 min 0 W/m 7,7 C 8,8 C 3,2 km/h (1 Bft)
16.12.2019 04:35 8,8 C 8,8 C 93 % 1017,6 hPa 0,0 l/m 0,2 km/h (0 Bft) N-NO 22 0 min 0 W/m 7,7 C 8,8 C 3,2 km/h (1 Bft)
16.12.2019 04:30 8,8 C 8,8 C 93 % 1017,7 hPa 0,0 l/m 0,3 km/h (0 Bft) S-SO 147 0 min 0 W/m 7,7 C 8,8 C 3,2 km/h (1 Bft)
16.12.2019 04:25 8,8 C 8,8 C 93 % 1017,8 hPa 0,0 l/m 1,4 km/h (1 Bft) S-SO 147 0 min 0 W/m 7,7 C 8,8 C 6,4 km/h (2 Bft)
16.12.2019 04:20 8,8 C 8,8 C 94 % 1017,8 hPa 0,0 l/m 0,3 km/h (0 Bft) S-SO 163 0 min 0 W/m 7,9 C 8,8 C 3,2 km/h (1 Bft)
16.12.2019 04:15 8,8 C 8,8 C 94 % 1017,9 hPa 0,0 l/m 0,0 km/h (0 Bft) S-SO 163 0 min 0 W/m 7,9 C 8,8 C 0,0 km/h (0 Bft)
16.12.2019 04:10 8,8 C 8,8 C 94 % 1017,9 hPa 0,0 l/m 0,1 km/h (0 Bft) S-SO 164 0 min 0 W/m 7,9 C 8,8 C 1,6 km/h (1 Bft)
16.12.2019 04:05 8,8 C 8,7 C 94 % 1017,9 hPa 0,0 l/m 1,2 km/h (1 Bft) O-SO 103 0 min 0 W/m 7,9 C 8,8 C 6,4 km/h (2 Bft)
16.12.2019 04:00 8,8 C 8,7 C 94 % 1017,8 hPa 0,0 l/m 1,9 km/h (1 Bft) O-NO 74 0 min 0 W/m 7,9 C 8,8 C 6,4 km/h (2 Bft)
16.12.2019 03:55 8,7 C 8,7 C 94 % 1017,7 hPa 0,0 l/m 3,1 km/h (1 Bft) O 92 0 min 0 W/m 7,8 C 8,7 C 9,7 km/h (2 Bft)
16.12.2019 03:50 8,7 C 8,6 C 94 % 1017,8 hPa 0,0 l/m 3,0 km/h (1 Bft) S-SO 148 0 min 0 W/m 7,8 C 8,7 C 11,3 km/h (2 Bft)
16.12.2019 03:45 8,6 C 8,5 C 95 % 1017,8 hPa 0,0 l/m 2,4 km/h (1 Bft) O-SO 123 0 min 0 W/m 7,8 C 8,6 C 9,7 km/h (2 Bft)
16.12.2019 03:40 8,5 C 8,4 C 95 % 1017,8 hPa 0,0 l/m 3,8 km/h (1 Bft) O-SO 107 0 min 0 W/m 7,7 C 8,5 C 11,3 km/h (2 Bft)
16.12.2019 03:35 8,4 C 8,3 C 95 % 1017,9 hPa 0,0 l/m 4,3 km/h (1 Bft) O 87 0 min 0 W/m 7,6 C 8,4 C 12,9 km/h (3 Bft)
16.12.2019 03:30 8,3 C 8,2 C 95 % 1017,7 hPa 0,0 l/m 4,2 km/h (1 Bft) O-SO 117 0 min 0 W/m 7,5 C 8,3 C 14,5 km/h (3 Bft)
16.12.2019 03:25 8,2 C 8,0 C 95 % 1017,8 hPa 0,0 l/m 3,6 km/h (1 Bft) SO 129 0 min 0 W/m 7,4 C 8,2 C 8,0 km/h (2 Bft)
16.12.2019 03:20 8,1 C 7,9 C 95 % 1017,9 hPa 0,0 l/m 3,2 km/h (1 Bft) SO 132 0 min 0 W/m 7,3 C 8,1 C 9,7 km/h (2 Bft)
16.12.2019 03:15 7,9 C 7,9 C 95 % 1017,9 hPa 0,0 l/m 0,9 km/h (0 Bft) SO 130 0 min 0 W/m 7,1 C 7,9 C 4,8 km/h (1 Bft)
16.12.2019 03:10 7,9 C 7,8 C 95 % 1018,0 hPa 0,0 l/m 0,9 km/h (0 Bft) O-SO 119 0 min 0 W/m 7,1 C 7,9 C 6,4 km/h (2 Bft)
16.12.2019 03:05 7,8 C 7,8 C 95 % 1017,9 hPa 0,0 l/m 0,0 km/h (0 Bft) W-NW 297 0 min 0 W/m 7,0 C 7,8 C 1,6 km/h (1 Bft)
16.12.2019 03:00 7,8 C 7,8 C 95 % 1017,9 hPa 0,0 l/m 0,1 km/h (0 Bft) W-NW 298 0 min 0 W/m 7,0 C 7,8 C 1,6 km/h (1 Bft)
16.12.2019 02:55 7,8 C 7,7 C 95 % 1017,9 hPa 0,0 l/m 0,5 km/h (0 Bft) NW 306 0 min 0 W/m 7,0 C 7,8 C 3,2 km/h (1 Bft)
16.12.2019 02:50 7,7 C 7,7 C 95 % 1018,1 hPa 0,0 l/m 0,7 km/h (0 Bft) NW 306 0 min 0 W/m 7,0 C 7,7 C 4,8 km/h (1 Bft)
16.12.2019 02:45 7,7 C 7,7 C 95 % 1018,1 hPa 0,0 l/m 0,0 km/h (0 Bft) O 80 0 min 0 W/m 7,0 C 7,7 C 1,6 km/h (1 Bft)
16.12.2019 02:40 7,7 C 7,7 C 95 % 1018,2 hPa 0,0 l/m 0,2 km/h (0 Bft) O 95 0 min 0 W/m 7,0 C 7,7 C 3,2 km/h (1 Bft)
16.12.2019 02:35 7,7 C 7,7 C 95 % 1018,2 hPa 0,0 l/m 0,2 km/h (0 Bft) W-SW 242 0 min 0 W/m 7,0 C 7,7 C 3,2 km/h (1 Bft)
16.12.2019 02:30 7,7 C 7,7 C 95 % 1018,3 hPa 0,0 l/m 0,1 km/h (0 Bft) W-SW 242 0 min 0 W/m 7,0 C 7,7 C 1,6 km/h (1 Bft)
16.12.2019 02:25 7,7 C 7,7 C 95 % 1018,3 hPa 0,0 l/m 1,1 km/h (1 Bft) W-SW 242 0 min 0 W/m 7,0 C 7,7 C 8,0 km/h (2 Bft)
16.12.2019 02:20 7,7 C 7,7 C 95 % 1018,4 hPa 0,0 l/m 1,4 km/h (1 Bft) W-NW 293 0 min 0 W/m 7,0 C 7,7 C 4,8 km/h (1 Bft)
16.12.2019 02:15 7,7 C 7,7 C 95 % 1018,3 hPa 0,0 l/m 0,0 km/h (0 Bft) W-NW 289 0 min 0 W/m 7,0 C 7,7 C 0,0 km/h (0 Bft)
16.12.2019 02:10 7,7 C 7,7 C 95 % 1018,3 hPa 0,0 l/m 1,1 km/h (1 Bft) W-NW 288 0 min 0 W/m 7,0 C 7,7 C 6,4 km/h (2 Bft)
16.12.2019 02:05 7,7 C 7,7 C 95 % 1018,2 hPa 0,0 l/m 2,8 km/h (1 Bft) W 279 0 min 0 W/m 7,0 C 7,7 C 6,4 km/h (2 Bft)
16.12.2019 02:00 7,7 C 7,7 C 95 % 1018,3 hPa 0,0 l/m 4,6 km/h (1 Bft) W-NW 292 0 min 0 W/m 7,0 C 7,3 C 8,0 km/h (2 Bft)
16.12.2019 01:55 7,7 C 7,7 C 95 % 1018,0 hPa 0,0 l/m 5,5 km/h (1 Bft) NW 311 0 min 0 W/m 7,0 C 7,0 C 9,7 km/h (2 Bft)
16.12.2019 01:50 7,8 C 7,8 C 94 % 1018,0 hPa 0,0 l/m 0,9 km/h (0 Bft) NW 306 0 min 0 W/m 6,9 C 7,8 C 6,4 km/h (2 Bft)
16.12.2019 01:45 7,8 C 7,8 C 95 % 1018,2 hPa 0,0 l/m 0,0 km/h (0 Bft) W-NW 302 0 min 0 W/m 7,0 C 7,8 C 0,0 km/h (0 Bft)
16.12.2019 01:40 7,8 C 7,8 C 95 % 1018,3 hPa 0,0 l/m 0,0 km/h (0 Bft) W-NW 301 0 min 0 W/m 7,0 C 7,8 C 1,6 km/h (1 Bft)
16.12.2019 01:35 7,8 C 7,8 C 95 % 1018,3 hPa 0,0 l/m 0,0 km/h (0 Bft) N-NW 331 0 min 0 W/m 7,0 C 7,8 C 0,0 km/h (0 Bft)
16.12.2019 01:30 7,9 C 7,9 C 95 % 1018,2 hPa 0,0 l/m 0,0 km/h (0 Bft) N-NW 331 0 min 0 W/m 7,1 C 7,9 C 0,0 km/h (0 Bft)
16.12.2019 01:25 7,9 C 7,9 C 95 % 1018,3 hPa 0,0 l/m 0,5 km/h (0 Bft) N-NW 331 0 min 0 W/m 7,1 C 7,9 C 3,2 km/h (1 Bft)
16.12.2019 01:20 7,9 C 7,9 C 95 % 1018,3 hPa 0,0 l/m 0,2 km/h (0 Bft) N-NW 331 0 min 0 W/m 7,1 C 7,9 C 1,6 km/h (1 Bft)
16.12.2019 01:15 7,9 C 7,9 C 95 % 1018,4 hPa 0,0 l/m 1,1 km/h (1 Bft) N-NW 331 0 min 0 W/m 7,1 C 7,9 C 4,8 km/h (1 Bft)
16.12.2019 01:10 8,0 C 7,9 C 95 % 1018,5 hPa 0,0 l/m 0,3 km/h (0 Bft) N-NW 329 0 min 0 W/m 7,2 C 8,0 C 3,2 km/h (1 Bft)
16.12.2019 01:05 8,0 C 8,0 C 95 % 1018,4 hPa 0,0 l/m 0,0 km/h (0 Bft) N-NW 339 0 min 0 W/m 7,2 C 8,0 C 1,6 km/h (1 Bft)
16.12.2019 01:00 8,0 C 7,9 C 95 % 1018,5 hPa 0,0 l/m 1,0 km/h (0 Bft) N-NW 344 0 min 0 W/m 7,2 C 8,0 C 3,2 km/h (1 Bft)
16.12.2019 00:55 8,0 C 7,9 C 95 % 1018,5 hPa 0,0 l/m 2,0 km/h (1 Bft) N 360 0 min 0 W/m 7,2 C 8,0 C 4,8 km/h (1 Bft)
16.12.2019 00:50 8,0 C 7,9 C 95 % 1018,5 hPa 0,0 l/m 1,4 km/h (1 Bft) NW 319 0 min 0 W/m 7,2 C 8,0 C 4,8 km/h (1 Bft)
16.12.2019 00:45 8,0 C 8,0 C 95 % 1018,6 hPa 0,0 l/m 1,3 km/h (1 Bft) NW 315 0 min 0 W/m 7,2 C 8,0 C 3,2 km/h (1 Bft)
16.12.2019 00:40 8,0 C 8,0 C 95 % 1018,6 hPa 0,0 l/m 1,3 km/h (1 Bft) N-NW 327 0 min 0 W/m 7,2 C 8,0 C 4,8 km/h (1 Bft)
16.12.2019 00:35 8,0 C 8,0 C 95 % 1018,6 hPa 0,0 l/m 1,6 km/h (1 Bft) N 5 0 min 0 W/m 7,2 C 8,0 C 4,8 km/h (1 Bft)
16.12.2019 00:30 8,0 C 8,0 C 95 % 1018,7 hPa 0,0 l/m 0,3 km/h (0 Bft) N-NO 26 0 min 0 W/m 7,2 C 8,0 C 3,2 km/h (1 Bft)
16.12.2019 00:25 8,1 C 8,0 C 95 % 1018,6 hPa 0,0 l/m 1,9 km/h (1 Bft) N-NO 25 0 min 0 W/m 7,3 C 8,1 C 4,8 km/h (1 Bft)
16.12.2019 00:20 8,1 C 8,0 C 95 % 1018,7 hPa 0,0 l/m 2,5 km/h (1 Bft) N-NO 19 0 min 0 W/m 7,3 C 8,1 C 4,8 km/h (1 Bft)
16.12.2019 00:15 8,1 C 8,1 C 95 % 1018,8 hPa 0,0 l/m 0,9 km/h (0 Bft) NO 48 0 min 0 W/m 7,3 C 8,1 C 4,8 km/h (1 Bft)
16.12.2019 00:10 8,1 C 8,1 C 95 % 1018,8 hPa 0,0 l/m 0,0 km/h (0 Bft) O-SO 109 0 min 0 W/m 7,3 C 8,1 C 0,0 km/h (0 Bft)
16.12.2019 00:05 8,1 C 8,1 C 95 % 1018,8 hPa 0,0 l/m 0,0 km/h (0 Bft) O-SO 109 0 min 0 W/m 7,3 C 8,1 C 0,0 km/h (0 Bft)
16.12.2019 00:00 8,1 C 8,1 C 95 % 1018,9 hPa 0,0 l/m 0,1 km/h (0 Bft) O-SO 109 0 min 0 W/m 7,3 C 8,1 C 1,6 km/h (1 Bft)
_ Min-Zeit 01:55 01:55 06:25 07:05 - 00:05 - - - - 07:10 01:55 00:05
Minimum _ 7,7 C 7,7 C 90 % 1017,3 hPa - 0,0 km/h (0 Bft) - - - - 6,5 C 7,0 C 0,0 km/h (0 Bft)
_ Max-Zeit 05:50 05:55 00:00 00:00 00:00 05:45 - - 00:00 00:00 04:00 05:50 03:30
Maximum _ 8,9 C 8,9 C 95 % 1018,9 hPa 0,0 l/m 7,0 km/h
SO (2 Bft)
- - 0 min 0 W/m 7,9 C 8,9 C 14,5 km/h
SO (3 Bft)
Durchschnitt _ 8,3 C 8,2 C 94 % 1017,9 hPa #0,0 l/m 1,3 km/h (1 Bft) S-SO - #0 min. 0 W/m 7,3 C 8,2 C 4,9 km/h (1 Bft)